Weather History for Havre, MT

Change the Weather History Date:

Tuesday, October 16, 2012

  Actual Average Record
Temperature  
Mean Temperature 52 °F 44 °F  
Max Temperature 63 °F 59 °F 84 °F (1927)
Min Temperature 41 °F 30 °F 9 °F (1881)
Degree Days  
Heating Degree Days 13 21  
Month to date heating degree days 277 280  
Since 1 July heating degree days 491 637  
Cooling Degree Days 0 0  
Month to date cooling degree days 0 0  
Year to date cooling degree days 507 386  
Growing Degree Days 2 (Base 50)    
Moisture  
Dew Point 39 °F    
Average Humidity 60    
Maximum Humidity 86    
Minimum Humidity 33    
Precipitation  
Precipitation 0.02 in 0.01 in 0.25 in (1994)
Month to date precipitation 0.84 0.34  
Year to date precipitation 11.17 10.13  
Snow  
Snow 0.00 in 0.10 in 2.50 in (1971)
Month to date snowfall T 0.8  
Since 1 July snowfall T 1.1  
Since 1 September snowfall T 1.1  
Snow Depth 0.00 in    
Sea Level Pressure  
Sea Level Pressure 29.41 in    
Wind  
Wind Speed 23 mph (WSW)    
Max Wind Speed 49 mph    
Max Gust Speed 62 mph    
Visibility 10 miles    
Events Rain , Thunderstorm    
T = Trace of Precipitation, MM = Missing Value Source: NWS Daily Summary

Daily Weather History Graph

Daily Weather History Graph

Search for Another Location

Airport:

Trip Planner

Search our weather history database for the weather conditions in past years. The results will help you decide how hot, cold, wet, or windy it might be!

Date:

Astronomy

Oct. 16, 2012 Rise Set
Actual Time 7:41 AM MDT 6:26 PM MDT
Civil Twilight 7:09 AM MDT 6:58 PM MDT
Nautical Twilight 6:33 AM MDT 7:34 PM MDT
Astronomical Twilight 5:56 AM MDT 8:11 PM MDT
Moon 9:19 AM MDT (10/16) 7:01 PM MDT (10/16)
Length of Visible Light 11h 48m
Length of Day
10h 45m
New Moon, 2% of the Moon is Illuminated
Oct 16
New Moon
Oct 21
First Quarter
Oct 29
Full
Nov 6
Last Quarter
Nov 13
New

Hourly Weather History & Observations

Time (MDT) Temp. Windchill Dew Point Humidity Pressure Visibility Wind Dir Wind Speed Gust Speed Precip Events Conditions
12:53 AM 45.0 °F 41.2 °F 37.0 °F 74% 29.61 in 10.0 mi SW 6.9 mph - N/A   Clear
1:53 AM 50.0 °F - 39.0 °F 66% 29.55 in 10.0 mi SW 10.4 mph - N/A   Clear
2:53 AM 57.0 °F - 39.0 °F 51% 29.52 in 10.0 mi SW 15.0 mph - N/A   Clear
3:53 AM 59.0 °F - 39.0 °F 48% 29.44 in 10.0 mi SSW 17.3 mph 26.5 mph 0.00 in Rain Light Rain
4:53 AM 55.0 °F - 39.0 °F 55% 29.42 in 10.0 mi SW 10.4 mph - 0.00 in   Mostly Cloudy
5:53 AM 60.8 °F - 39.2 °F 45% 29.39 in 10.0 mi SW 17.3 mph 26.5 mph N/A   Clear
6:53 AM 62.1 °F - 39.9 °F 44% 29.33 in 10.0 mi SW 20.7 mph - N/A   Clear
7:53 AM 63.0 °F - 39.9 °F 43% 29.31 in 10.0 mi SW 21.9 mph 27.6 mph N/A   Scattered Clouds
8:53 AM 62.1 °F - 41.0 °F 46% 29.31 in 10.0 mi SW 21.9 mph 31.1 mph N/A   Overcast
9:53 AM 55.9 °F - 44.1 °F 64% 29.29 in 10.0 mi SW 23.0 mph 31.1 mph 0.00 in Rain Light Rain
10:29 AM 53.6 °F - 48.2 °F 82% 29.29 in 10.0 mi SSW 21.9 mph 26.5 mph 0.00 in   Scattered Clouds
10:53 AM 53.1 °F - 48.0 °F 83% 29.30 in 10.0 mi SSW 21.9 mph - 0.00 in   Clear
11:53 AM 55.0 °F - 46.0 °F 72% 29.26 in 10.0 mi SSW 21.9 mph 29.9 mph N/A   Partly Cloudy
12:53 PM 59.0 °F - 46.9 °F 64% 29.27 in 10.0 mi WSW 25.3 mph 33.4 mph N/A   Partly Cloudy
1:30 PM 59.0 °F - 48.2 °F 67% 29.27 in 10.0 mi WSW 23.0 mph 29.9 mph N/A Thunderstorm Partly Cloudy
1:51 PM 48.2 °F - 42.8 °F 82% 29.28 in 7.0 mi West 16.1 mph 34.5 mph 0.01 in Rain , Thunderstorm Light Thunderstorms and Rain
1:53 PM 48.9 °F - 42.1 °F 77% 29.29 in 8.0 mi West 16.1 mph 32.2 mph 0.01 in Rain Light Rain
2:53 PM 62.1 °F - 34.0 °F 35% 29.24 in 10.0 mi WSW 34.5 mph 47.2 mph 0.00 in   Clear
3:53 PM 59.0 °F - 30.9 °F 35% 29.28 in 10.0 mi West 40.3 mph 55.2 mph N/A   Clear
4:53 PM 55.9 °F - 30.0 °F 37% 29.33 in 10.0 mi West 33.4 mph 47.2 mph N/A   Scattered Clouds
5:53 PM 52.0 °F - 37.0 °F 57% 29.38 in 10.0 mi WNW 20.7 mph 26.5 mph 0.00 in Rain Light Rain
6:53 PM 50.0 °F - 36.0 °F 59% 29.43 in 10.0 mi WNW 24.2 mph 44.9 mph 0.00 in Rain Light Rain
7:53 PM 41.0 °F 27.7 °F 37.0 °F 86% 29.52 in 5.0 mi NW 44.9 mph 58.7 mph 0.00 in   Overcast
8:53 PM 41.0 °F 30.7 °F 37.0 °F 86% 29.58 in 10.0 mi NW 25.3 mph 36.8 mph 0.01 in   Overcast
9:31 PM 42.8 °F 35.1 °F 37.4 °F 81% 29.62 in 10.0 mi West 16.1 mph 27.6 mph 0.00 in   Overcast
9:53 PM 43.0 °F 34.8 °F 37.0 °F 80% 29.63 in 10.0 mi West 18.4 mph 26.5 mph 0.00 in   Overcast
10:53 PM 44.1 °F 35.9 °F 37.0 °F 76% 29.67 in 10.0 mi West 19.6 mph 26.5 mph 0.00 in   Overcast
11:53 PM 43.0 °F 33.1 °F 34.0 °F 71% 29.70 in 10.0 mi WNW 26.5 mph 40.3 mph N/A   Overcast